Millinocket, ME

1:06 AM EDT on August 26, 2016 (GMT -0400)
Millinocket Municipal

Weather History for KMLT - January, 2013

Change the Weather History Date:

Sunday, January 27, 2013

  Actual Average Record
Temperature  
Mean Temperature 11 °F 13 °F  
Max Temperature 18 °F 23 °F 53 °F (1908)
Min Temperature 4 °F 4 °F -33 °F (1912)
Degree Days  
Heating Degree Days 54 52  
Month to date heating degree days 1352 1378  
Since 1 July heating degree days 4226 4543  
Cooling Degree Days 0 0  
Month to date cooling degree days 0 0  
Year to date cooling degree days 0 0  
Moisture  
Dew Point -3 °F    
Average Humidity 59    
Maximum Humidity 69    
Minimum Humidity 49    
Precipitation  
Precipitation T in 0.10 in 1.76 in (1986)
Month to date precipitation 0.58 2.61  
Year to date precipitation 0.58 2.61  
Sea Level Pressure  
Sea Level Pressure 30.23 in    
Wind  
Wind Speed 14 mph (WNW)    
Max Wind Speed 23 mph    
Max Gust Speed 32 mph    
Visibility 10 miles    
Events      
T = Trace of Precipitation, MM = Missing Value Source: NWS Daily Summary

Daily Weather History Graph

Daily Weather History Graph

Search for Another Location

Airport or City:

Trip Planner

Search our weather history database for the weather conditions in past years. The results will help you decide how hot, cold, wet, or windy it might be!

Date:

Astronomy

Jan. 27, 2013 Rise Set
Actual Time 7:01 AM EST 4:34 PM EST
Civil Twilight 6:29 AM EST 5:06 PM EST
Nautical Twilight 5:53 AM EST 5:42 PM EST
Astronomical Twilight 5:18 AM EST 6:17 PM EST
Moon 5:30 PM EST (1/27) 6:48 AM EST (1/27)
Length of Visible Light 10h 36m
Length of Day
9h 32m
Full, 100% of the Moon is Illuminated
Jan 27
Full
Feb 3
Last Quarter
Feb 10
New
Feb 17
First Quarter
Feb 25
Full

Hourly Weather History & Observations

Time (EST) Temp. Windchill Dew Point Humidity Pressure Visibility Wind Dir Wind Speed Gust Speed Precip Events Conditions
12:53 AM 7.0 °F -11.6 °F -5.1 °F 58% 30.06 in 10.0 mi NW 17.3 mph 29.9 mph N/A   Clear
1:53 AM 7.0 °F -10.4 °F -5.1 °F 58% 30.09 in 10.0 mi WNW 15.0 mph 23.0 mph N/A   Clear
2:53 AM 5.0 °F -15.7 °F -6.0 °F 61% 30.10 in 10.0 mi NW 20.7 mph 27.6 mph N/A   Clear
3:53 AM 3.9 °F -13.0 °F -6.0 °F 64% 30.14 in 10.0 mi WNW 12.7 mph 25.3 mph N/A   Clear
4:53 AM 3.9 °F -10.4 °F -6.0 °F 64% 30.15 in 10.0 mi WNW 9.2 mph 20.7 mph N/A   Mostly Cloudy
5:27 AM 3.2 °F -12.2 °F -5.8 °F 66% 30.11 in 10.0 mi WNW 10.4 mph 18.4 mph N/A   Overcast
5:40 AM 3.2 °F -11.3 °F -5.8 °F 66% 30.12 in 10.0 mi West 9.2 mph - N/A   Overcast
5:53 AM 3.9 °F -9.4 °F -5.1 °F 66% 30.17 in 10.0 mi WNW 8.1 mph - N/A   Overcast
6:53 AM 5.0 °F -8.1 °F -6.0 °F 61% 30.19 in 10.0 mi West 8.1 mph - N/A   Mostly Cloudy
7:53 AM 5.0 °F -12.3 °F -6.0 °F 61% 30.21 in 10.0 mi WNW 13.8 mph 19.6 mph N/A   Clear
8:53 AM 8.1 °F -7.0 °F -4.0 °F 58% 30.23 in 10.0 mi West 11.5 mph 19.6 mph N/A   Clear
9:53 AM 10.0 °F -4.5 °F -2.0 °F 58% 30.25 in 10.0 mi WNW 11.5 mph 20.7 mph N/A   Mostly Cloudy
10:53 AM 12.9 °F -3.4 °F -0.0 °F 56% 30.25 in 10.0 mi WNW 16.1 mph 23.0 mph 0.00 in   Overcast
11:53 AM 16.0 °F 4.4 °F -0.0 °F 49% 30.23 in 10.0 mi West 9.2 mph 19.6 mph 0.00 in   Clear
12:53 PM 17.1 °F 2.5 °F 1.0 °F 50% 30.21 in 10.0 mi WNW 15.0 mph 24.2 mph 0.00 in   Clear
1:53 PM 18.0 °F 3.1 °F 1.9 °F 50% 30.22 in 10.0 mi WNW 16.1 mph 27.6 mph 0.00 in   Clear
2:53 PM 18.0 °F 3.1 °F 1.9 °F 50% 30.25 in 10.0 mi WNW 16.1 mph 24.2 mph N/A   Clear
3:53 PM 17.1 °F 2.0 °F 1.0 °F 50% 30.27 in 10.0 mi WNW 16.1 mph 25.3 mph N/A   Clear
4:53 PM 15.1 °F 3.3 °F -0.0 °F 51% 30.30 in 10.0 mi West 9.2 mph 17.3 mph N/A   Clear
5:53 PM 12.9 °F -2.8 °F -0.9 °F 54% 30.31 in 10.0 mi WNW 15.0 mph 23.0 mph N/A   Clear
6:53 PM 10.9 °F -7.0 °F -2.0 °F 56% 30.33 in 10.0 mi WNW 18.4 mph 29.9 mph N/A   Clear
7:53 PM 9.0 °F -9.0 °F -2.9 °F 59% 30.36 in 10.0 mi WNW 17.3 mph 27.6 mph N/A   Clear
8:53 PM 8.1 °F -10.7 °F -2.9 °F 61% 30.37 in 10.0 mi WNW 18.4 mph 27.6 mph N/A   Clear
9:53 PM 8.1 °F -9.6 °F -2.9 °F 61% 30.37 in 10.0 mi WNW 16.1 mph 27.6 mph N/A   Clear
10:53 PM 7.0 °F -7.5 °F -2.9 °F 64% 30.37 in 10.0 mi WNW 10.4 mph 24.2 mph N/A   Clear
11:53 PM 6.1 °F -8.7 °F -4.0 °F 63% 30.36 in 10.0 mi WNW 10.4 mph 17.3 mph N/A   Clear